Regional Weather Roundup
Issued by NWS

Home | Current Version | Previous Version | Text Only | Print | Product List | Glossary Off
Versions: 1 2 3 4 5 6 7 8 9 10 11 12 13 14 15 16 17 18 19 20 21 22 23 24 25 26 27 28 29 30 31 32 33 34 35 36 37 38 39 40 41 42 43 44 45 46 47 48 49 50

000
ASUS43 KFSD 011902
RWRSD

WEATHER ROUNDUP FOR SOUTH DAKOTA
NATIONAL WEATHER SERVICE SIOUX FALLS SD
200 PM CDT TUE SEP 01 2015

NOTE: "FAIR" INDICATES FEW OR NO CLOUDS BELOW 12,000 FEET WITH NO
SIGNIFICANT WEATHER AND/OR OBSTRUCTIONS TO VISIBILITY.


SDZ001>005-009-010-012>017-012000-
NORTHWEST AND NORTH CENTRAL SOUTH DAKOTA

CITY           SKY/WX    TMP DP  RH WIND       PRES   REMARKS
BUFFALO          N/A     83  60  45 SE7       29.79F
MOBRIDGE       SUNNY     85  67  54 S9        29.80F
$$

SDZ012>016-024>037-041>051-057-063-072>074-012000-
SOUTHWEST AND SOUTH CENTRAL SOUTH DAKOTA

CITY           SKY/WX    TMP DP  RH WIND       PRES   REMARKS
RAPID CTY ARPT SUNNY     80  60  50 CALM      29.86F
PIERRE         SUNNY     91  63  39 SE20G25   29.77F
CUSTER         SUNNY     81  32  17 W12G20    30.02F
ELLSWORTH AFB  SUNNY     81  59  47 VRB2      29.86F
PHILIP         SUNNY     88  57  34 SE12      29.79F
PINE RIDGE     SUNNY     90  44  20 SW9       29.88F
WINNER         FAIR      88  60  38 SE14      29.84F
$$

SDZ004>011-016>023-039-040-012000-
NORTHEAST SOUTH DAKOTA

CITY           SKY/WX    TMP DP  RH WIND       PRES   REMARKS
ABERDEEN       MOSUNNY   83  71  67 SE9       29.82F
WATERTOWN      CLOUDY    77  69  76 E6        29.86F
BROOKINGS      CLOUDY    75  70  83 SE8       29.89F
$$

SDZ017-020-022-023-036>040-048>070-012000-
SOUTHEAST SOUTH DAKOTA

CITY           SKY/WX    TMP DP  RH WIND       PRES   REMARKS
SIOUX FALLS    CLOUDY    79  70  74 SE12      29.88F
HURON          CLOUDY    78  69  73 S6        29.83S
CHAMBERLAIN    PTSUNNY   81  68  63 SE13      29.84F
MITCHELL       CLOUDY    76  71  85 S7        29.86R
YANKTON        PTSUNNY   79  68  69 SE9       29.85F
$$

ABBREVIATIONS USED IN REMARKS
   TC - TEMPERATURE IN CELSIUS
  WCI - WIND CHILL INDEX
   HX - HEAT INDEX
  VSB - VISIBILITY




USA.gov is the U.S. government's official web portal to all federal, state and local government web resources and services.